Location: Peterborough
(44.3091°N, 78.3197°W)
Time: 17:51:52
(UTC-04:00)

Transit 2A Rocket - Pass Details

Date: 24 March 2023
Orbit: 584 x 914 km, 66.7° (Epoch: 04 June)

Event Time Altitude Azimuth Distance (km) Brightness Sun altitude
Rises 15:06:12 0° 273° (W) 3,359 8.7 41.2°
Reaches altitude 10° 15:09:44 10° 296° (WNW) 2,490 7.9 40.8°
Maximum altitude 15:13:02 15° 331° (NNW) 2,183 7.3 40.4°
Drops below altitude 10° 15:16:27 10° 5° (N) 2,579 7.4 40.0°
Sets 15:20:13 0° 28° (NNE) 3,549 8.0 39.6°
